TimeMST,TemperatureF,Dew PointF,Humidity,Sea Level PressureIn,VisibilityMPH,Wind Direction,Wind SpeedMPH,Gust SpeedMPH,PrecipitationIn,Events,Conditions,WindDirDegrees,DateUTC
12:53 AM,9.0,6.1,88,30.27,10.0,SSW,10.4,-,N/A,,Clear,200,2013-01-02 07:53:00
1:53 AM,6.1,3.0,87,30.29,10.0,West,6.9,-,N/A,,Clear,260,2013-01-02 08:53:00
2:53 AM,8.1,5.0,87,30.27,9.0,SSW,13.8,-,N/A,,Clear,200,2013-01-02 09:53:00
3:53 AM,8.1,6.1,92,30.30,9.0,West,4.6,-,N/A,,Clear,280,2013-01-02 10:53:00
5:53 AM,7.0,3.0,84,30.33,9.0,SSW,11.5,-,N/A,,Clear,210,2013-01-02 12:53:00
6:53 AM,7.0,3.0,84,30.34,9.0,SSW,11.5,-,N/A,,Scattered Clouds,210,2013-01-02 13:53:00
7:53 AM,12.9,8.1,81,30.36,8.0,WSW,8.1,-,N/A,,Partly Cloudy,240,2013-01-02 14:53:00
8:53 AM,21.0,15.1,78,30.37,10.0,SSW,4.6,-,N/A,,Clear,210,2013-01-02 15:53:00
9:53 AM,25.0,16.0,69,30.36,10.0,West,9.2,-,N/A,,Clear,260,2013-01-02 16:53:00
10:53 AM,28.0,18.0,66,30.34,10.0,West,10.4,-,N/A,,Clear,280,2013-01-02 17:53:00
11:53 AM,32.0,21.0,64,30.30,10.0,WNW,5.8,-,N/A,,Clear,290,2013-01-02 18:53:00
12:53 PM,34.0,21.9,61,30.26,10.0,North,12.7,-,N/A,,Clear,350,2013-01-02 19:53:00
1:53 PM,35.1,21.0,57,30.26,10.0,North,13.8,-,N/A,,Clear,10,2013-01-02 20:53:00
2:53 PM,36.0,19.0,50,30.26,10.0,North,8.1,-,N/A,,Clear,360,2013-01-02 21:53:00
4:53 PM,28.9,16.0,58,30.33,10.0,North,3.5,-,N/A,,Clear,350,2013-01-02 23:53:00
5:53 PM,23.0,15.1,72,30.36,10.0,WNW,3.5,-,N/A,,Clear,300,2013-01-03 00:53:00
6:53 PM,19.9,12.9,74,30.39,10.0,Calm,Calm,-,N/A,,Scattered Clouds,0,2013-01-03 01:53:00
7:53 PM,15.1,10.9,84,30.40,10.0,SSW,6.9,-,N/A,,Clear,200,2013-01-03 02:53:00
8:53 PM,12.0,9.0,88,30.40,10.0,SSW,8.1,-,N/A,,Clear,200,2013-01-03 03:53:00
9:53 PM,10.0,6.1,84,30.41,10.0,SSW,11.5,-,N/A,,Clear,200,2013-01-03 04:53:00
10:53 PM,10.9,6.1,81,30.43,10.0,SW,6.9,-,N/A,,Scattered Clouds,230,2013-01-03 05:53:00
11:53 PM,17.1,10.9,77,30.40,10.0,WSW,9.2,-,N/A,,Overcast,240,2013-01-03 06:53:00